Location: Newark
(45.7667°N, 11.5167°E)
Time: 02:05:28
(UTC+00:00)

Envisat - Pass Details

Date: 27 January 2020
Orbit: 764 x 766 km, 98.1° (Epoch: 25 February)

Event Time Altitude Azimuth Distance (km) Brightness Sun altitude
Rises 17:53:23 0° 195° (SSW) 3,220 6.5 -17.7°
Reaches altitude 10° 17:55:59 10° 206° (SSW) 2,299 5.9 -18.1°
Maximum altitude 18:00:20 28° 266° (W) 1,398 5.1 -18.9°
Drops below altitude 10° 18:04:43 10° 325° (NW) 2,313 5.8 -19.6°
Sets 18:07:20 0° 337° (NNW) 3,244 6.5 -20.1°
